Location: G�rlitz
(51.1670°N, 15.0000°E)
Time: 20:05:54
(UTC+01:00)

Envisat - Pass Details

Date: 19 February 2026
Orbit: 761 x 763 km, 98.4° (Epoch: 11 March)

Event Time Altitude Azimuth Distance (km) Brightness Sun altitude
Rises 03:58:42 0° 8° (N) 3,238 6.6 -29.6°
Reaches altitude 10° 04:01:14 10° 358° (N) 2,307 5.6 -29.3°
Enters shadow 04:02:41 17° 347° (NNW) 1,841 5.0 -29.1°
